This demonstration page uses our WeatherBlox Daily Observations layout. Learn more.

Hourly Observations for April 8, 2019

Temp ( °F °C ) Dew Point ( °F °C ) Humidity (%) Winds ( mph kmh ) Pressure ( in mb ) Visibility ( mi km ) Precip ( " mm )
12:15 am 00:15 Clear 49 9.6 36 2.1 60 60 S 7 11 30.01 1016 10 16.0934 0 0
12:35 am 00:35 Clear 53 11.4 35 1.5 51 51 S 8 13 29.99 1016 10 16.0934 0 0
12:55 am 00:55 Clear 53 11.7 35 1.6 50 50 S 6 9 29.99 1015 10 16.0934 0 0
1:15 am 01:15 Clear 53 11.5 35 1.5 51 51 S 7 11 30 1016 10 16.0934 0 0
1:35 am 01:35 Clear 52 11.2 35 1.4 51 51 SSW 8 13 30 1016 10 16.0934 0 0
1:55 am 01:55 Clear 50 10.1 35 1.7 56 56 SSW 6 9 30 1016 10 16.0934 0 0
2:15 am 02:15 Clear 48 8.8 35 1.8 62 62 SW 6 9 30.01 1016 10 16.0934 0 0
2:35 am 02:35 Clear 48 9 35 1.5 60 60 SSW 7 11 30.01 1016 10 16.0934 0 0
2:55 am 02:55 Clear 50 9.8 34 1 55 55 SSW 7 11 29.99 1016 10 16.0934 0 0
3:15 am 03:15 Clear 49 9.5 34 1.1 56 56 SSW 8 13 30 1016 10 16.0934 0 0
3:35 am 03:35 Clear 49 9.6 34 1.3 57 57 SW 8 13 30 1016 10 16.0934 0 0
3:55 am 03:55 Clear 49 9.5 34 1.2 57 57 SW 9 15 29.99 1015 10 16.0934 0 0
4:15 am 04:15 Clear 50 10.2 33 0.6 52 52 SW 10 17 29.98 1015 10 16.0934 0 0
4:35 am 04:35 Clear 51 10.4 32 0.2 50 50 WSW 9 15 29.97 1015 10 16.0934 0 0
4:55 am 04:55 Clear 51 10.5 33 0.5 50 50 WSW 9 15 29.97 1015 10 16.0934 0 0
5:15 am 05:15 Clear 52 11.1 33 0.4 48 48 WSW 9 15 29.96 1015 10 16.0934 0 0
5:35 am 05:35 Clear 52 11 33 0.4 48 48 WSW 9 15 29.96 1015 10 16.0934 0 0
5:55 am 05:55 Clear 52 10.9 33 0.5 49 49 WSW 10 17 29.96 1015 10 16.0934 0 0
6:15 am 06:15 Clear 52 11 33 0.5 49 49 WSW 9 15 29.96 1015 10 16.0934 0 0
6:35 am 06:35 Clear 51 10.6 33 0.5 50 50 W 12 19 29.97 1015 10 16.0934 0 0
6:55 am 06:55 Clear 50 10.2 33 0.5 51 51 W 12 19 29.97 1015 10 16.0934 0 0
7:15 am 07:15 Sunny 49 9.5 33 0.6 54 54 W 9 15 29.99 1015 10 16.0934 0 0
7:35 am 07:35 Sunny 50 10 33 0.8 53 53 W 12 19 29.98 1015 10 16.0934 0 0
7:55 am 07:55 Sunny 51 10.8 34 0.9 51 51 W 13 20 29.98 1015 10 16.0934 0 0
8:15 am 08:15 Sunny 51 10.5 34 1.1 52 52 W 12 19 29.99 1016 10 16.0934 0 0
8:35 am 08:35 Sunny 52 11.3 35 1.6 52 52 W 12 19 29.98 1015 10 16.0934 0 0
8:55 am 08:55 Sunny 55 12.6 36 2.2 49 49 W 12 19 29.97 1015 10 16.0934 0 0
9:15 am 09:15 Sunny 58 14.2 37 2.7 46 46 W 15 24 29.96 1014 10 16.0934 0 0
9:35 am 09:35 Sunny 60 15.8 38 3.1 43 43 W 16 26 29.94 1014 10 16.0934 0 0
9:55 am 09:55 Sunny 62 16.9 39 3.7 42 42 W 13 20 29.93 1014 10 16.0934 0 0
10:15 am 10:15 Sunny 65 18.3 40 4.4 40 40 W 12 19 29.91 1013 10 16.0934 0 0
10:35 am 10:35 Sunny 68 19.9 40 4.7 37 37 W 17 28 29.9 1012 10 16.0934 0 0
10:55 am 10:55 Sunny 69 20.3 39 4 34 34 WNW 17 28 29.89 1012 10 16.0934 0 0
11:15 am 11:15 Sunny 69 20.8 40 4.7 35 35 WNW 15 24 29.89 1012 10 16.0934 0 0
11:35 am 11:35 Sunny 70 21.2 40 4.7 34 34 W 17 28 29.89 1012 10 16.0934 0 0
11:55 am 11:55 Sunny 71 21.6 40 4.2 32 32 NW 17 28 29.88 1012 10 16.0934 0 0
12:15 pm 12:15 Sunny 72 22.1 40 4.6 32 32 NW 20 31 29.88 1012 10 16.0934 0 0
12:35 pm 12:35 Sunny 72 22.1 40 4.6 32 32 NW 17 28 29.88 1012 10 16.0934 0 0
12:55 pm 12:55 Sunny 72 22.2 41 4.8 32 32 NW 16 26 29.87 1011 10 16.0934 0 0
1:15 pm 13:15 Sunny 73 22.7 41 5.2 32 32 NNW 12 19 29.86 1011 10 16.0934 0 0
1:35 pm 13:35 Sunny 73 23 41 4.8 31 31 NW 15 24 29.85 1011 10 16.0934 0 0
1:55 pm 13:55 Sunny 74 23.6 41 4.8 30 30 NW 12 19 29.86 1011 10 16.0934 0 0
2:15 pm 14:15 Sunny 75 23.8 40 4.3 28 28 NW 12 19 29.86 1011 10 16.0934 0 0
2:35 pm 14:35 Sunny 75 23.9 40 4.3 28 28 N 9 15 29.85 1011 10 16.0934 0 0
2:55 pm 14:55 Sunny 75 24 40 4.5 28 28 NNW 12 19 29.85 1011 10 16.0934 0 0
3:15 pm 15:15 Sunny 75 24 41 4.9 29 29 N 12 19 29.84 1011 10 16.0934 0 0
3:35 pm 15:35 Sunny 75 24.1 41 5 29 29 N 8 13 29.83 1010 10 16.0934 0 0
3:55 pm 15:55 Sunny 75 23.7 41 5.2 30 30 NNW 10 17 29.84 1010 10 16.0934 0 0
4:15 pm 16:15 Sunny 75 24.1 42 5.5 30 30 NNW 10 17 29.83 1010 10 16.0934 0 0
4:35 pm 16:35 Sunny 75 23.8 41 5 30 30 NNW 8 13 29.84 1010 10 16.0934 0 0
4:55 pm 16:55 Sunny 75 23.9 42 5.3 30 30 NNW 7 11 29.83 1010 10 16.0934 0 0
5:15 pm 17:15 Sunny 75 23.8 41 5.1 30 30 N 9 15 29.83 1010 10 16.0934 0 0
5:35 pm 17:35 Sunny 74 23.2 41 5.1 31 31 NW 10 17 29.85 1011 10 16.0934 0 0
5:55 pm 17:55 Sunny 73 23 41 5 31 31 NW 10 17 29.85 1011 10 16.0934 0 0
6:15 pm 18:15 Sunny 74 23.2 41 5 31 31 NNW 9 15 29.85 1011 10 16.0934 0 0
6:35 pm 18:35 Sunny 73 23 41 4.8 31 31 N 10 17 29.86 1011 10 16.0934 0 0
6:55 pm 18:55 Sunny 71 21.5 42 5.3 35 35 N 10 17 29.87 1012 10 16.0934 0 0
7:15 pm 19:15 Sunny 69 20.5 42 5.7 38 38 NNE 8 13 29.88 1012 10 16.0934 0 0
7:35 pm 19:35 Sunny 67 19.4 42 5.8 41 41 NNE 9 15 29.89 1012 10 16.0934 0 0
7:55 pm 19:55 Sunny 65 18.1 42 5.8 45 45 N 8 13 29.91 1013 10 16.0934 0 0
8:15 pm 20:15 Clear 60 15.5 43 6.2 54 54 N 8 13 29.94 1014 10 16.0934 0 0
8:35 pm 20:35 Clear 60 15.7 44 6.5 55 55 NNE 8 13 29.94 1014 10 16.0934 0 0
8:55 pm 20:55 Clear 60 15.6 44 6.7 56 56 NNE 9 15 29.95 1014 10 16.0934 0 0
9:15 pm 21:15 Clear 60 15.5 43 6.1 54 54 NNE 9 15 29.95 1014 10 16.0934 0 0
9:35 pm 21:35 Clear 58 14.3 43 6.3 59 59 NNE 8 13 29.98 1015 10 16.0934 0 0
9:55 pm 21:55 Clear 57 13.9 44 6.8 63 63 E 8 13 29.98 1015 10 16.0934 0 0
10:15 pm 22:15 Clear 59 15.2 44 6.5 56 56 E 7 11 29.97 1015 10 16.0934 0 0
10:35 pm 22:35 Clear 58 14.7 43 6.3 57 57 E 8 13 29.97 1015 10 16.0934 0 0
10:55 pm 22:55 Clear 58 14.7 43 6.2 57 57 E 9 15 29.96 1015 10 16.0934 0 0
11:15 pm 23:15 Clear 56 13.2 43 6.2 63 63 SE 9 15 29.97 1015 10 16.0934 0 0
11:35 pm 23:35 Clear 54 12.3 44 6.6 68 68 ESE 6 9 29.98 1015 10 16.0934 0 0
11:55 pm 23:55 Clear 55 12.7 43 6.1 64 64 SE 3 6 29.98 1015 10 16.0934 0 0

Powered by AerisWeather